Location: Catstown
(52.4386°N, 7.2633°W)
Time: 22:20:43
(UTC+00:00)

NOSS 2-2 (D) - Pass Details

Date: 18 September 2020
Orbit: 469 x 1739 km, 63.3° (Epoch: 23 October)

Event Time Altitude Azimuth Distance (km) Brightness Sun altitude
Rises 19:20:21 0° 185° (S) 2,501 6.6 -7.5°
Reaches altitude 10° 19:22:46 10° 168° (SSE) 1,632 5.5 -7.9°
Maximum altitude 19:25:26 20° 118° (ESE) 1,169 4.4 -8.3°
Drops below altitude 10° 19:28:20 10° 69° (ENE) 1,784 5.4 -8.7°
Sets 19:31:06 0° 53° (NE) 2,820 6.6 -9.1°
